Regional Weather Roundup
Issued by NWS Goodland, KS

Home | Current Version | Previous Version | Graphics & Text | Print | Product List | Glossary On
Versions: 1 2 3 4 5 6 7 8 9 10 11 12 13 14 15 16 17 18 19 20 21 22 23 24 25 26 27 28 29 30 31 32 33 34 35 36 37 38 39 40 41 42 43 44 45 46 47 48 49 50
000
ASUS43 KGLD 280659
RWRGLD

GOODLAND FORECAST AREA HOURLY WEATHER ROUNDUP
NATIONAL WEATHER SERVICE GOODLAND KS
1200 AM MST TUE FEB 28 2017

...OFFICIAL OBSERVATIONS...

CITY           SKY/WX    TMP DP  RH WIND       PRES   REMARKS
GOODLAND KS    CLEAR     33  19  56 W14       29.67R
HILL CITY KS   CLEAR     47  20  34 W13       29.60F
IMPERIAL NEB   CLEAR     33  24  69 NW16      29.63R
MCCOOK NEB     CLEAR     41  23  48 SW14      29.59R
AKRON CO       CLEAR     24  21  88 N7        29.69R
BURLINGTON CO  CLEAR     30  18  60 W10       29.70R
LIMON CO       CLOUDY   N/A N/A N/A N10       29.70R
$$

...UNOFFICIAL OBSERVATIONS...

CITY           SKY/WX    TMP DP  RH WIND       PRES   REMARKS
LENORA KS        N/A     47  32  56 W9          N/A
NORTON KS      CLEAR     39  16  38 SW9       29.58S
SHARON SPRINGS   N/A     42  18  37 SW15        N/A
TRENTON NEB      N/A     35  32  89 NW7         N/A
KIT CARSON CO    N/A     34  17  50 CALM        N/A
YUMA CO        FAIR      28  23  80 W9        29.68S
$$




USA.gov is the U.S. government's official web portal to all federal, state and local government web resources and services.